Location: ??????
(41.3164°N, 22.6615°E)
Time: 17:09:48
(UTC+00:00)

Cosmos 1300 - Pass Details

Date: 04 June 2022
Orbit: 506 x 508 km, 82.5° (Epoch: 01 July)

Event Time Altitude Azimuth Distance (km) Brightness Sun altitude
Rises 22:02:28 0° 355° (N) 2,619 7.6 -25.9°
Reaches altitude 10° 22:04:37 10° 359° (N) 1,728 6.4 -25.9°
Enters shadow 22:07:19 42° 19° (NNE) 734 3.8 -26.0°
